[[[{"header":{"parameterUnit":"kt","parameterCategory":2,"dx":1,"dy":1,"la1":30.253999710083008,"la2":30.299108505249023,"lo1":-89.0895004272461,"lo2":-89.04439544677734,"nx":28,"ny":28,"refTime":"2022-10-03T21:00:00:Z","depth":"0","parameterNumber":2,"parameterNumberName":"U-component_of_CURRENTS"},"data":[-0.4227,-0.4047,-0.3833,-0.3603,-0.3478,-0.3138,-0.3031,-0.2894,-0.2696,-0.2394,-0.2233,-0.2039,-0.192,-0.1882,-0.1743,-0.1647,-0.1691,-0.155,-0.1605,-0.1903,-0.195,-0.1995,-0.2073,-0.1559,-0.1559,-0.1416,-0.1415,-0.1415,-0.4083,-0.3892,-0.3935,-0.364,-0.3573,-0.3492,-0.3371,-0.3218,-0.3011,-0.2898,-0.27,-0.2408,-0.2133,-0.1946,-0.1757,-0.1668,-0.17,-0.1663,-0.1831,-0.1814,-0.1986,-0.2047,-0.1519,-0.1519,-0.1519,-0.1519,-0.1519,-0.1519,-0.3865,-0.3792,-0.3712,-0.3623,-0.3613,-0.3452,-0.3384,-0.3376,-0.3247,-0.3067,-0.3014,-0.2767,-0.2483,-0.2161,-0.2081,-0.1948,-0.2061,-0.2022,-0.2096,-0.2142,-0.2128,-0.2253,-0.18,-0.1802,-0.1803,-0.1804,-0.1805,0,-0.3532,-0.3481,-0.3519,-0.3426,-0.3459,-0.3449,-0.3466,-0.3414,-0.3359,-0.3321,-0.3172,-0.305,-0.2781,-0.2583,-0.2388,-0.236,-0.2569,-0.2495,-0.2572,-0.2687,-0.265,-0.2636,-0.3016,-0.2567,-0.2573,-0.2577,-0.258,-0.2583,-0.3324,-0.3295,-0.3273,-0.3326,-0.3394,-0.3372,-0.3435,-0.3398,-0.3415,-0.3337,-0.335,-0.3232,-0.3186,-0.2943,-0.2929,-0.2786,-0.2982,-0.2646,-0.2886,-0.2871,-0.297,-0.3036,-0.3011,-0.2647,-0.2639,-0.2632,-0.2627,0,-0.3316,-0.3329,-0.3295,-0.3343,-0.3358,-0.3333,-0.3427,-0.3424,-0.3421,-0.3439,-0.345,-0.3531,-0.3446,-0.3518,-0.3473,-0.3508,-0.3332,-0.3359,-0.3221,-0.3213,-0.3046,-0.3128,-0.271,-0.2632,-0.296,-0.2953,-0.2947,0,-0.3505,-0.3433,-0.356,-0.353,-0.3454,-0.3557,-0.3489,-0.3574,-0.361,-0.3636,-0.377,-0.3758,-0.3914,-0.3874,-0.3925,-0.378,-0.385,-0.3815,-0.3818,-0.379,-0.3771,-0.3779,-0.3862,-0.406,-0.4064,-0.4067,-0.407,0,-0.3781,-0.3791,-0.3713,-0.3724,-0.3846,-0.381,-0.3857,-0.3957,-0.398,-0.3981,-0.3988,-0.4006,-0.401,-0.4033,-0.4116,-0.4242,-0.3993,-0.4194,-0.3976,-0.3959,-0.3835,-0.3814,-0.3557,-0.4074,-0.4075,-0.4076,-0.4078,0,-0.4096,-0.4132,-0.4052,-0.4081,-0.4065,-0.4086,-0.4063,-0.4102,-0.4189,-0.4224,-0.4274,-0.4373,-0.4333,-0.4503,-0.4424,-0.4533,-0.4511,-0.4525,-0.4514,-0.4336,-0.4467,-0.4013,-0.3744,-0.3791,-0.4401,-0.4405,-0.4409,0,-0.4294,-0.4294,-0.4444,-0.4372,-0.4334,-0.4495,-0.45,-0.4589,-0.4651,-0.4622,-0.4716,-0.4689,-0.485,-0.4811,-0.481,-0.4803,-0.4708,-0.4882,-0.4727,-0.4716,-0.453,-0.4321,-0.4229,-0.3828,-0.4462,-0.4456,-0.4452,0,-0.4466,-0.4665,-0.4641,-0.4616,-0.4763,-0.479,-0.4832,-0.4855,-0.4808,-0.4946,-0.483,-0.4904,-0.4948,-0.4943,-0.4994,-0.4962,-0.4789,-0.5022,-0.5023,-0.4809,-0.4605,-0.4416,-0.4361,-0.493,-0.4926,-0.4922,-0.4494,0,-0.4628,-0.4703,-0.4728,-0.4823,-0.4891,-0.4891,-0.5001,-0.5057,-0.5104,-0.5154,-0.5137,-0.5196,-0.5174,-0.5215,-0.5227,-0.5134,-0.5103,-0.5236,-0.523,-0.5167,-0.4988,-0.4955,-0.5376,-0.5378,-0.538,-0.5381,0,0,-0.4647,-0.4755,-0.4959,-0.4986,-0.4985,-0.5151,-0.511,-0.5196,-0.5287,-0.5264,-0.5315,-0.5332,-0.5367,-0.5301,-0.5278,-0.5348,-0.5285,-0.529,-0.5228,-0.5211,-0.5195,-0.502,-0.4987,-0.5383,-0.5384,-0.5385,-0.5385,0,-0.4681,-0.4872,-0.4937,-0.5002,-0.5103,-0.5168,-0.5187,-0.5285,-0.5302,-0.5337,-0.5353,-0.5361,-0.5415,-0.539,-0.5388,-0.5373,-0.5335,-0.5409,-0.5267,-0.5243,-0.5225,-0.5208,-0.5032,-0.5001,-0.5389,-0.5388,-0.5388,0,-0.4674,-0.4812,-0.4892,-0.5086,-0.5137,-0.5165,-0.5232,-0.531,-0.5311,-0.5373,-0.5373,-0.5417,-0.5437,-0.5436,-0.5442,-0.5447,-0.5351,-0.5451,-0.5446,-0.5368,-0.5342,-0.5322,-0.5304,-0.5524,-0.5524,-0.5524,0,0,-0.4671,-0.4823,-0.4955,-0.5091,-0.5119,-0.5205,-0.5257,-0.5302,-0.5356,-0.5379,-0.5405,-0.5421,-0.5431,-0.5432,-0.5464,-0.5476,-0.5417,-0.5463,-0.5457,-0.5451,-0.5372,-0.5344,-0.5326,-0.5524,-0.5524,-0.5524,0,0,-0.4644,-0.4848,-0.4892,-0.507,-0.5148,-0.5253,-0.5292,-0.5337,-0.5386,-0.5372,-0.5397,-0.5402,-0.5414,-0.5442,-0.5437,-0.5441,-0.5475,-0.5477,-0.5397,-0.539,-0.5384,-0.5274,-0.5439,0,0,0,0,0,-0.4707,-0.4827,-0.4866,-0.491,-0.5139,-0.5244,-0.5267,-0.5326,-0.5326,-0.5364,-0.5374,-0.5381,-0.5433,-0.5429,-0.544,-0.5409,-0.5522,-0.5522,-0.5523,-0.5426,-0.5418,-0.5411,0,0,0,0,0,0,-0.4725,-0.4782,-0.4861,-0.4981,-0.5031,-0.5242,-0.5239,-0.5258,-0.5322,-0.5325,-0.5379,-0.5383,-0.5393,-0.5425,-0.5435,-0.5404,-0.5436,-0.5522,-0.5522,-0.5523,-0.5423,-0.5416,-0.5411,0,0,0,0,0,-0.4739,-0.4784,-0.5152,-0.4977,-0.5021,-0.5122,-0.5237,-0.5252,-0.5306,-0.5345,-0.5352,-0.5346,-0.5394,-0.5403,-0.5431,-0.5398,-0.5429,-0.5433,-0.5522,-0.5522,-0.5523,-0.542,0,0,0,0,0,0,-0.475,-0.4787,-0.516,-0.5173,-0.4952,-0.511,-0.5144,-0.5247,-0.5321,-0.5332,-0.5309,-0.5309,-0.5396,-0.5402,-0.5408,-0.5392,-0.5424,-0.5427,-0.543,-0.5522,-0.5523,-0.5523,0,0,0,0,0,0,-0.4762,-0.4798,-0.5167,-0.5133,-0.5143,-0.5098,-0.5129,-0.5173,-0.5318,-0.528,-0.5285,-0.5308,-0.5355,-0.5401,-0.5406,-0.5475,-0.5419,-0.5423,-0.5425,-0.5427,-0.5523,-0.5523,0,0,0,0,0,0,-0.4777,-0.4808,-0.513,-0.5137,-0.5146,-0.5292,-0.5133,-0.5347,-0.535,-0.5274,-0.5346,-0.5343,-0.5352,-0.536,-0.5405,-0.5472,-0.5475,-0.542,-0.5422,-0.5424,-0.5425,0,0,0,0,0,0,0,-0.4789,-0.4586,-0.5085,-0.5141,-0.5148,-0.529,-0.5293,-0.5297,-0.535,-0.5348,-0.5346,-0.5344,-0.5399,-0.5403,-0.5407,-0.547,0,0,-0.5419,-0.5421,0,0,0,0,0,0,0,0,-0.4573,-0.4583,-0.5085,-0.5088,-0.509,-0.529,-0.5293,-0.5296,-0.535,-0.5348,-0.5347,-0.5345,-0.54,-0.5403,-0.5407,0,0,0,0,0,0,0,0,0,0,0,0,0,0,0,-0.5085,-0.5088,0,-0.529,-0.5293,-0.5295,-0.5349,-0.5348,-0.5347,-0.5346,-0.5401,-0.5404,-0.5406,0,0,0,0,0,0,0,0,0,0,0,0,0,0,0,0,0,0,0,0,0,0,0,0,0,0,0,0,0,0,0,0,0,0,0,0,0,0,0,0,0,0,0,0,0,0,0,0,0,0,0,0,0,0,0,0,0,0,0,0,0,0,0,0,0,0,0,0,0]}],[{"header":{"parameterUnit":"kt","parameterCategory":2,"dx":1,"dy":1,"la1":30.253999710083008,"la2":30.299108505249023,"lo1":-89.0895004272461,"lo2":-89.04439544677734,"nx":28,"ny":28,"refTime":"2022-10-03T21:00:00:Z","depth":"0","parameterNumber":3,"parameterNumberName":"V-component_of_CURRENTS"},"data":[0.0564,0.0845,0.0709,0.1032,0.1025,0.108,0.1098,0.1145,0.1085,0.1206,0.122,0.1115,0.1134,0.1434,0.1727,0.174,0.1878,0.186,0.1938,0.1693,0.1659,0.1626,0.1708,0.1956,0.1956,0.2279,0.2282,0.2284,0.0027,0.0069,0.0146,0.0274,0.0382,0.0217,0.0288,0.0357,0.0507,0.0467,0.0483,0.0555,0.0791,0.0898,0.1201,0.1359,0.1378,0.1432,0.1475,0.151,0.1156,0.1226,0.1374,0.1374,0.1374,0.1374,0.1374,0.1374,-0.072,-0.0642,-0.0491,-0.0419,-0.0362,-0.0248,-0.0177,-0.0118,-0.0041,0.007,-0.0131,0.0043,0.0082,0.0484,0.0647,0.095,0.0907,0.1036,0.1079,0.1092,0.1227,0.0796,0.0908,0.0907,0.0907,0.0906,0.0906,0,-0.1108,-0.1141,-0.1059,-0.0962,-0.0868,-0.0821,-0.0737,-0.0744,-0.0735,-0.0693,-0.0539,-0.0431,-0.0198,0.0123,0.0402,0.0558,0.0705,0.0655,0.0794,0.098,0.0987,0.1084,0.0646,0.0698,0.0696,0.0695,0.0694,0.0693,-0.1359,-0.1336,-0.135,-0.1246,-0.1216,-0.1196,-0.1084,-0.1141,-0.1025,-0.0969,-0.0839,-0.0672,-0.0419,-0.0081,0.0205,0.0445,0.0598,0.0606,0.0669,0.077,0.0855,0.0886,0.0945,0.0674,0.0677,0.0679,0.068,0,-0.1391,-0.1405,-0.1373,-0.1332,-0.1328,-0.13,-0.1244,-0.1126,-0.1124,-0.0976,-0.094,-0.0733,-0.0485,-0.0252,0.0026,0.0177,0.048,0.0486,0.0459,0.0503,0.0756,0.0806,0.0947,0.1027,0.0566,0.0568,0.057,0,-0.1385,-0.137,-0.1346,-0.1334,-0.1308,-0.1245,-0.12,-0.1109,-0.1013,-0.0887,-0.0766,-0.0626,-0.0378,-0.0194,-0.001,0.0253,0.022,0.0462,0.0504,0.053,0.0538,0.0751,0.0815,0.0442,0.0443,0.0443,0.0444,0,-0.1361,-0.1313,-0.1312,-0.1279,-0.1185,-0.1167,-0.1108,-0.0962,-0.0888,-0.0757,-0.0703,-0.0493,-0.0353,-0.0207,0.009,0.0091,0.0295,0.0335,0.0493,0.0495,0.0619,0.0634,0.0706,0.0445,0.0445,0.0445,0.0445,0,-0.1306,-0.1289,-0.1274,-0.1199,-0.1177,-0.1132,-0.101,-0.0927,-0.0759,-0.0677,-0.0525,-0.0374,-0.0172,-0.0073,0.017,0.0144,0.0257,0.0373,0.0375,0.0554,0.0621,0.0541,0.052,0.0664,0.0378,0.0378,0.0378,0,-0.1283,-0.1266,-0.1212,-0.116,-0.1122,-0.1,-0.0926,-0.0793,-0.0675,-0.0574,-0.0354,-0.0198,-0.004,0.005,0.0156,0.035,0.0388,0.0392,0.0529,0.0533,0.0547,0.0522,0.0561,0.0515,0.0379,0.0379,0.0379,0,-0.1249,-0.1183,-0.1174,-0.1139,-0.1008,-0.0954,-0.0866,-0.0725,-0.0665,-0.0503,-0.0421,-0.0105,-0.0019,0.0144,0.0329,0.0417,0.0387,0.0483,0.0492,0.0376,0.0424,0.0509,0.0516,0.0445,0.0446,0.0447,0.0379,0,-0.1146,-0.1128,-0.1134,-0.1046,-0.0983,-0.0936,-0.0789,-0.0717,-0.0619,-0.0494,-0.0316,-0.0081,0.0149,0.0246,0.0391,0.0512,0.0499,0.0589,0.0636,0.062,0.0596,0.0594,0.0669,0.0673,0.0677,0.068,0,0,-0.1097,-0.1084,-0.1015,-0.0986,-0.0927,-0.0788,-0.0752,-0.0642,-0.0452,-0.0386,-0.0348,0.0022,0.0217,0.0446,0.0484,0.0582,0.0584,0.0606,0.0653,0.0649,0.0646,0.0619,0.0614,0.0686,0.0687,0.0688,0.0689,0,-0.1044,-0.102,-0.1031,-0.0955,-0.0847,-0.0744,-0.0738,-0.0583,-0.0496,-0.0364,-0.019,-0.0032,0.0227,0.0419,0.0553,0.0607,0.0676,0.0675,0.0616,0.0679,0.067,0.0663,0.0634,0.0627,0.0698,0.0697,0.0697,0,-0.0965,-0.0916,-0.0915,-0.0828,-0.074,-0.0673,-0.0572,-0.0504,-0.0426,-0.023,-0.0097,0.0054,0.0308,0.0466,0.0552,0.0597,0.0748,0.0761,0.075,0.0758,0.0828,0.0819,0.0811,0.0895,0.0894,0.0893,0,0,-0.092,-0.0924,-0.0797,-0.0804,-0.0767,-0.0613,-0.0556,-0.0463,-0.032,-0.0253,-0.0094,0.0105,0.0282,0.0389,0.0553,0.0695,0.0744,0.0769,0.076,0.0752,0.0754,0.0822,0.0815,0.089,0.089,0.089,0,0,-0.088,-0.0784,-0.0737,-0.0744,-0.0641,-0.0471,-0.0446,-0.0357,-0.0209,-0.019,0.0015,0.0069,0.0215,0.0366,0.0299,0.0592,0.0653,0.0669,0.0451,0.0442,0.0434,0.0387,0.0441,0,0,0,0,0,-0.0768,-0.0807,-0.0767,-0.0752,-0.0608,-0.0506,-0.0474,-0.0334,-0.0288,-0.0264,-0.0098,0.0004,0.0398,0.0341,0.0388,0.0425,0.0848,0.0856,0.0863,0.0617,0.0606,0.0597,0,0,0,0,0,0,-0.0762,-0.0748,-0.0764,-0.0614,-0.0578,-0.0504,-0.0398,-0.0358,-0.0287,-0.0268,-0.0031,0.0011,0.0158,0.0329,0.0368,0.0401,0.0428,0.0851,0.0857,0.0863,0.0613,0.0604,0.0597,0,0,0,0,0,-0.0756,-0.0744,-0.0573,-0.0607,-0.0577,-0.04,-0.0397,-0.0363,-0.0293,-0.0074,-0.003,-0.0196,0.0153,0.0199,0.0353,0.0379,0.0402,0.0416,0.0855,0.086,0.0865,0.0609,0,0,0,0,0,0,-0.0751,-0.0679,-0.056,-0.0542,-0.0602,-0.0398,-0.037,-0.0367,-0.0098,-0.0058,-0.0229,-0.0218,0.015,0.0187,0.0221,0.0363,0.0381,0.0395,0.0404,0.0859,0.0863,0.0866,0,0,0,0,0,0,-0.0684,-0.0666,-0.055,-0.0552,-0.0532,-0.0398,-0.0373,-0.0234,-0.0094,-0.0264,-0.0248,-0.0227,0.0112,0.0177,0.0205,0.0418,0.0364,0.0378,0.0388,0.0394,0.0862,0.0865,0,0,0,0,0,0,-0.0672,-0.0656,-0.0555,-0.054,-0.0522,-0.03,-0.0265,-0.0114,-0.0142,-0.0275,-0.0137,-0.0135,0.0101,0.0131,0.0193,0.0393,0.0411,0.0365,0.0374,0.0381,0.0385,0,0,0,0,0,0,0,-0.0662,-0.0828,-0.0679,-0.053,-0.0514,-0.0376,-0.037,-0.0364,-0.0142,-0.014,-0.0138,-0.0136,0.0286,0.0301,0.0316,0.0373,0,0,0.0363,0.037,0,0,0,0,0,0,0,0,-0.0829,-0.0828,-0.0679,-0.0675,-0.0672,-0.0375,-0.037,-0.0365,-0.0141,-0.014,-0.0138,-0.0137,0.029,0.0302,0.0315,0,0,0,0,0,0,0,0,0,0,0,0,0,0,0,-0.0678,-0.0676,0,-0.0374,-0.037,-0.0366,-0.0141,-0.014,-0.0138,-0.0137,0.0294,0.0304,0.0314,0,0,0,0,0,0,0,0,0,0,0,0,0,0,0,0,0,0,0,0,0,0,0,0,0,0,0,0,0,0,0,0,0,0,0,0,0,0,0,0,0,0,0,0,0,0,0,0,0,0,0,0,0,0,0,0,0,0,0,0,0,0,0,0,0,0,0,0,0]}]],[[{"header":{"parameterUnit":"kt","parameterCategory":2,"dx":1,"dy":1,"la1":30.253999710083008,"la2":30.299108505249023,"lo1":-89.0895004272461,"lo2":-89.04439544677734,"nx":28,"ny":28,"refTime":"2022-10-03T21:00:00:Z","depth":"2","parameterNumber":2,"parameterNumberName":"U-component_of_CURRENTS"},"data":[-0.182,-0.1709,-0.1742,-0.1577,-0.1579,-0.1487,-0.1471,-0.1386,-0.1334,-0.1175,-0.108,-0.1174,-0.1254,-0.0987,-0.0942,-0.0802,-0.1029,-0.0747,-0.123,-0.1441,-0.1492,-0.1687,-0.1505,0,0,0,0,0,-0.2057,-0.2003,-0.1969,-0.1952,-0.1924,-0.2079,-0.2085,-0.1976,-0.1848,-0.1828,-0.1736,-0.154,-0.1381,-0.1375,-0.1147,-0.1113,-0.1188,-0.109,-0.1227,-0.1286,-0.1339,-0.1183,-0.0759,-0.0758,-0.0756,-0.0755,0,0,-0.2351,-0.2309,-0.2284,-0.2283,-0.2312,-0.2348,-0.2271,-0.2301,-0.2274,-0.2191,-0.229,-0.2119,-0.2112,-0.1744,-0.1642,-0.1563,-0.1739,-0.1736,-0.1765,-0.18,-0.166,-0.1675,-0.1365,-0.1367,-0.137,-0.1372,-0.1374,0,-0.2567,-0.2597,-0.2565,-0.2579,-0.2565,-0.2591,-0.26,-0.2594,-0.2698,-0.268,-0.2626,-0.2572,-0.2424,-0.2208,-0.2065,-0.201,-0.224,-0.2082,-0.2534,-0.2145,-0.2185,-0.2258,-0.2301,-0.1982,-0.1988,-0.1993,-0.1996,-0.1999,-0.2805,-0.2742,-0.2803,-0.277,-0.2795,-0.2792,-0.2785,-0.2896,-0.2889,-0.2941,-0.2905,-0.2867,-0.2783,-0.2631,-0.2513,-0.2444,-0.2566,-0.2234,-0.2214,-0.2684,-0.2752,-0.2779,-0.2803,-0.2066,-0.2057,-0.205,-0.2045,0,-0.2886,-0.2931,-0.2893,-0.2939,-0.2951,-0.2928,-0.2996,-0.2966,-0.3046,-0.303,-0.3042,-0.3096,-0.302,-0.3014,-0.2947,-0.2902,-0.2805,-0.2716,-0.2609,-0.2619,-0.2836,-0.2851,-0.258,-0.2572,-0.2565,-0.2559,-0.2554,0,-0.305,-0.3013,-0.3063,-0.3058,-0.3022,-0.3092,-0.307,-0.3112,-0.3155,-0.3133,-0.3225,-0.3174,-0.3199,-0.3143,-0.3154,-0.2986,-0.3058,-0.2879,-0.2916,-0.2789,-0.277,-0.3216,-0.3237,-0.3026,-0.3025,-0.3024,-0.3023,0,-0.3158,-0.3173,-0.3135,-0.3165,-0.3199,-0.321,-0.3218,-0.3257,-0.3278,-0.3302,-0.3341,-0.3269,-0.3248,-0.3201,-0.3182,-0.3253,-0.3074,-0.3193,-0.2992,-0.299,-0.2823,-0.2807,-0.3023,-0.3022,-0.3022,-0.3022,-0.3022,0,-0.3306,-0.3302,-0.3278,-0.3284,-0.3301,-0.3286,-0.3302,-0.3316,-0.3339,-0.3416,-0.3386,-0.344,-0.3307,-0.3343,-0.3228,-0.3293,-0.3296,-0.3284,-0.3289,-0.3092,-0.3243,-0.3127,-0.2895,-0.348,-0.3482,-0.3484,-0.3486,0,-0.3392,-0.3371,-0.3419,-0.3381,-0.3373,-0.3478,-0.3462,-0.3493,-0.3554,-0.3563,-0.3535,-0.3534,-0.3541,-0.3556,-0.3437,-0.3462,-0.3365,-0.3408,-0.349,-0.3493,-0.3305,-0.3101,-0.2914,-0.2946,-0.3513,-0.351,-0.3508,0,-0.3441,-0.3491,-0.3491,-0.3483,-0.3567,-0.3588,-0.3595,-0.3609,-0.3607,-0.3673,-0.3664,-0.3602,-0.3639,-0.3624,-0.3631,-0.3519,-0.3428,-0.3625,-0.3624,-0.3664,-0.3382,-0.3176,-0.3141,-0.3451,-0.3445,-0.344,-0.3529,0,-0.3516,-0.3512,-0.3533,-0.3538,-0.3584,-0.364,-0.3704,-0.3738,-0.3822,-0.3865,-0.3857,-0.3857,-0.3856,-0.3861,-0.3877,-0.3729,-0.3846,-0.3863,-0.3878,-0.377,-0.3842,-0.3825,-0.4057,-0.4059,-0.4061,-0.4062,0,0,-0.3547,-0.3533,-0.3602,-0.3621,-0.3675,-0.3778,-0.3792,-0.3836,-0.3941,-0.3959,-0.4036,-0.4055,-0.4069,-0.3954,-0.3927,-0.398,-0.4023,-0.4001,-0.3851,-0.3828,-0.3806,-0.3865,-0.3847,-0.4065,-0.4066,-0.4067,-0.4067,0,-0.3558,-0.3603,-0.3582,-0.3649,-0.3761,-0.3804,-0.3823,-0.3957,-0.4003,-0.4044,-0.4077,-0.4052,-0.4152,-0.4086,-0.4083,-0.4016,-0.4107,-0.4097,-0.3946,-0.3871,-0.3846,-0.3823,-0.3876,-0.3858,-0.4072,-0.4071,-0.4071,0,-0.3588,-0.3627,-0.3633,-0.3704,-0.3795,-0.3818,-0.3928,-0.4026,-0.4031,-0.4113,-0.4132,-0.4178,-0.42,-0.4189,-0.4192,-0.4206,-0.4151,-0.4206,-0.4197,-0.4133,-0.4056,-0.4028,-0.4003,-0.432,-0.432,-0.4321,0,0,-0.3595,-0.3592,-0.3696,-0.372,-0.3765,-0.3894,-0.3954,-0.4021,-0.4088,-0.4114,-0.4162,-0.4199,-0.4208,-0.4208,-0.4243,-0.4233,-0.4229,-0.4232,-0.4221,-0.4211,-0.4143,-0.4064,-0.4037,-0.4323,-0.4323,-0.4323,0,0,-0.3622,-0.3696,-0.3724,-0.3748,-0.3831,-0.3975,-0.4024,-0.4085,-0.4129,-0.4148,-0.4198,-0.4207,-0.4211,-0.4241,-0.4255,-0.4254,-0.4306,-0.4304,-0.422,-0.4207,-0.4195,-0.4104,-0.4324,0,0,0,0,0,-0.3688,-0.3681,-0.3705,-0.3725,-0.386,-0.3956,-0.3981,-0.408,-0.413,-0.4136,-0.4169,-0.4222,-0.4245,-0.4258,-0.4272,-0.4258,-0.4346,-0.4342,-0.4338,-0.4231,-0.4216,-0.4203,0,0,0,0,0,0,-0.3697,-0.3715,-0.3708,-0.3842,-0.3877,-0.3956,-0.4021,-0.4047,-0.4129,-0.4137,-0.4215,-0.4224,-0.4256,-0.4257,-0.4268,-0.4253,-0.432,-0.4344,-0.4341,-0.4337,-0.4226,-0.4214,-0.4203,0,0,0,0,0,-0.3704,-0.372,-0.389,-0.3846,-0.3875,-0.4016,-0.4019,-0.4042,-0.4102,-0.4178,-0.4192,-0.4173,-0.4255,-0.4266,-0.4264,-0.4246,-0.4313,-0.4317,-0.4342,-0.4339,-0.4337,-0.422,0,0,0,0,0,0,-0.371,-0.3747,-0.39,-0.3917,-0.3837,-0.4013,-0.4034,-0.4036,-0.4138,-0.4156,-0.4135,-0.414,-0.4255,-0.4264,-0.4272,-0.424,-0.4307,-0.4311,-0.4314,-0.434,-0.4338,-0.4336,0,0,0,0,0,0,-0.3742,-0.3759,-0.3908,-0.3891,-0.3907,-0.401,-0.4029,-0.4068,-0.4134,-0.4086,-0.4096,-0.4136,-0.4217,-0.4262,-0.4269,-0.433,-0.4303,-0.4307,-0.4309,-0.4311,-0.4338,-0.4336,0,0,0,0,0,0,-0.3753,-0.3768,-0.3887,-0.3899,-0.3912,-0.4103,-0.4045,-0.4155,-0.4185,-0.4077,-0.4185,-0.4185,-0.4212,-0.4222,-0.4266,-0.4324,-0.4328,-0.4303,-0.4306,-0.4307,-0.4309,0,0,0,0,0,0,0,-0.3762,-0.3612,-0.3809,-0.3905,-0.3917,-0.4074,-0.4078,-0.4082,-0.4185,-0.4185,-0.4185,-0.4185,-0.4282,-0.4286,-0.429,-0.4319,0,0,-0.4303,-0.4305,0,0,0,0,0,0,0,0,-0.361,-0.3611,-0.3809,-0.3813,-0.3817,-0.4075,-0.4078,-0.4081,-0.4185,-0.4185,-0.4185,-0.4185,-0.4283,-0.4286,-0.429,0,0,0,0,0,0,0,0,0,0,0,0,0,0,0,-0.381,-0.3813,0,-0.4075,-0.4078,-0.408,-0.4185,-0.4185,-0.4185,-0.4185,-0.4284,-0.4287,-0.4289,0,0,0,0,0,0,0,0,0,0,0,0,0,0,0,0,0,0,0,0,0,0,0,0,0,0,0,0,0,0,0,0,0,0,0,0,0,0,0,0,0,0,0,0,0,0,0,0,0,0,0,0,0,0,0,0,0,0,0,0,0,0,0,0,0,0,0,0,0]}],[{"header":{"parameterUnit":"kt","parameterCategory":2,"dx":1,"dy":1,"la1":30.253999710083008,"la2":30.299108505249023,"lo1":-89.0895004272461,"lo2":-89.04439544677734,"nx":28,"ny":28,"refTime":"2022-10-03T21:00:00:Z","depth":"2","parameterNumber":3,"parameterNumberName":"V-component_of_CURRENTS"},"data":[-0.2315,-0.2372,-0.2287,-0.2389,-0.24,-0.2377,-0.2323,-0.2203,-0.2009,-0.1813,-0.1574,-0.1218,-0.0543,-0.0284,0.0117,0.033,0.0323,0.0328,0.0317,0.0187,0.018,0.0436,0.0363,0,0,0,0,0,-0.211,-0.2123,-0.2229,-0.2214,-0.2268,-0.2225,-0.2184,-0.207,-0.1941,-0.175,-0.1471,-0.0969,-0.0562,-0.0096,0.0282,0.0556,0.0531,0.0571,0.0503,0.0498,0.0495,0.0452,0.0535,0.0536,0.0536,0.0537,0,0,-0.1875,-0.1898,-0.1972,-0.196,-0.2034,-0.2058,-0.1998,-0.1967,-0.1857,-0.1617,-0.1306,-0.0982,-0.0489,-0.004,0.0268,0.0486,0.0485,0.0518,0.0514,0.051,0.0471,0.0439,0.0557,0.0557,0.0558,0.0558,0.0559,0,-0.1628,-0.162,-0.1673,-0.1701,-0.1737,-0.1737,-0.1707,-0.1668,-0.1461,-0.1322,-0.1103,-0.091,-0.0456,-0.014,0.0205,0.0352,0.0391,0.0457,0.045,0.0357,0.0321,0.0338,0.0327,0.0424,0.0423,0.0423,0.0423,0.0423,-0.1447,-0.147,-0.1437,-0.1494,-0.149,-0.1472,-0.1487,-0.1328,-0.1292,-0.1041,-0.1013,-0.0763,-0.0556,-0.0178,0.0077,0.0349,0.0354,0.0442,0.0428,0.0386,0.0406,0.0394,0.0382,0.042,0.042,0.0421,0.0421,0,-0.1402,-0.1367,-0.137,-0.1326,-0.1313,-0.1316,-0.1248,-0.1245,-0.1112,-0.1017,-0.0981,-0.0762,-0.053,-0.0316,-0.0044,0.008,0.0281,0.0354,0.0279,0.0302,0.0378,0.0368,0.0498,0.05,0.0501,0.0503,0.0504,0,-0.1333,-0.1327,-0.1293,-0.1291,-0.1282,-0.1209,-0.1175,-0.1103,-0.0999,-0.0927,-0.0787,-0.0685,-0.0463,-0.0297,-0.0127,0.0101,0.0097,0.0252,0.0287,0.0236,0.0233,0.0261,0.026,0.0258,0.0257,0.0256,0.0255,0,-0.1303,-0.1261,-0.1259,-0.1237,-0.1163,-0.1142,-0.1099,-0.0981,-0.0928,-0.0798,-0.0745,-0.057,-0.0467,-0.0322,-0.0099,-0.011,0.0114,0.0125,0.0245,0.0247,0.0292,0.0296,0.0254,0.0254,0.0253,0.0253,0.0253,0,-0.1248,-0.1234,-0.1221,-0.1162,-0.1149,-0.1117,-0.1024,-0.0963,-0.0829,-0.0759,-0.0642,-0.0535,-0.0377,-0.0337,-0.0111,-0.0163,-0.0048,0.0046,0.0053,0.0144,0.0168,0.0196,0.0211,0.0134,0.0133,0.0131,0.013,0,-0.1225,-0.1212,-0.1174,-0.1139,-0.112,-0.104,-0.0982,-0.0892,-0.0803,-0.0718,-0.0576,-0.0461,-0.0373,-0.0305,-0.0225,-0.0071,-0.0011,-0.0071,0.012,0.0127,0.0113,0.0124,0.008,0.0188,0.0113,0.0114,0.0116,0,-0.1207,-0.1163,-0.116,-0.1139,-0.1059,-0.1031,-0.0962,-0.0872,-0.082,-0.0714,-0.0634,-0.0429,-0.037,-0.0258,-0.0145,-0.0076,-0.0035,-0.0025,-0.0018,-0.0013,0.0076,0.0098,0.0112,-0.0025,-0.0024,-0.0022,0.0102,0,-0.1133,-0.113,-0.1135,-0.1087,-0.1049,-0.1024,-0.0935,-0.0889,-0.0817,-0.0734,-0.0604,-0.0461,-0.0294,-0.0227,-0.0135,-0.0031,-0.001,0.0018,0.0056,0.005,0.0109,0.0119,0.0039,0.0042,0.0044,0.0046,0,0,-0.1106,-0.1112,-0.1083,-0.1065,-0.1027,-0.0951,-0.0925,-0.086,-0.0741,-0.0693,-0.0665,-0.0405,-0.0273,-0.0114,-0.0088,-0.003,0.0006,0.0018,0.0061,0.0061,0.0063,0.0117,0.0124,0.005,0.0051,0.0052,0.0052,0,-0.1075,-0.1082,-0.1093,-0.1051,-0.0987,-0.0926,-0.0922,-0.0826,-0.077,-0.0682,-0.0569,-0.0462,-0.0272,-0.0146,-0.0051,-0.0018,0.008,0.0043,0.002,0.0076,0.0074,0.0073,0.0124,0.0129,0.0058,0.0057,0.0057,0,-0.1032,-0.1008,-0.1014,-0.0977,-0.0925,-0.0885,-0.082,-0.0778,-0.0723,-0.0599,-0.0506,-0.0405,-0.023,-0.0119,-0.0055,-0.0025,0.0132,0.0109,0.0102,0.0123,0.0185,0.0183,0.0181,0.02,0.0199,0.0199,0,0,-0.1003,-0.1016,-0.0948,-0.0962,-0.0944,-0.0846,-0.0811,-0.0751,-0.0662,-0.0622,-0.051,-0.0371,-0.0246,-0.017,-0.0056,0.0044,0.0104,0.0117,0.0111,0.0104,0.0121,0.0182,0.0181,0.0197,0.0197,0.0197,0,0,-0.0972,-0.0924,-0.09,-0.0921,-0.0862,-0.0755,-0.074,-0.068,-0.0594,-0.0577,-0.0432,-0.0395,-0.0289,-0.0185,-0.0228,-0.0006,0.0034,0.0045,-0.0094,-0.01,-0.0107,-0.012,-0.0102,0,0,0,0,0,-0.0901,-0.0938,-0.0918,-0.0911,-0.0837,-0.0778,-0.076,-0.0669,-0.0628,-0.0621,-0.0518,-0.0421,-0.0167,-0.0204,-0.0169,-0.0114,0.0175,0.0179,0.0183,0.0029,0.0021,0.0014,0,0,0,0,0,0,-0.0898,-0.0894,-0.0915,-0.0822,-0.0803,-0.0777,-0.0701,-0.0676,-0.0627,-0.0615,-0.0448,-0.0417,-0.0314,-0.0211,-0.0182,-0.0132,-0.0112,0.0177,0.018,0.0183,0.0026,0.002,0.0014,0,0,0,0,0,-0.0895,-0.0892,-0.0813,-0.0818,-0.0801,-0.0687,-0.07,-0.0678,-0.0634,-0.0478,-0.0446,-0.0569,-0.0318,-0.0284,-0.0193,-0.0148,-0.0131,-0.0121,0.0179,0.0182,0.0184,0.0023,0,0,0,0,0,0,-0.0893,-0.0854,-0.0805,-0.0794,-0.0809,-0.0685,-0.067,-0.0681,-0.0496,-0.0468,-0.0591,-0.0584,-0.0321,-0.0293,-0.0268,-0.016,-0.0147,-0.0136,-0.013,0.0181,0.0183,0.0185,0,0,0,0,0,0,-0.0854,-0.0846,-0.0799,-0.0794,-0.0781,-0.0683,-0.067,-0.0567,-0.0493,-0.0618,-0.0608,-0.059,-0.0336,-0.0301,-0.028,-0.0124,-0.0159,-0.0149,-0.0142,-0.0137,0.0183,0.0184,0,0,0,0,0,0,-0.0847,-0.084,-0.0797,-0.0787,-0.0775,-0.0636,-0.0585,-0.0499,-0.0541,-0.0626,-0.0536,-0.0534,-0.0343,-0.0321,-0.0289,-0.0143,-0.0129,-0.0159,-0.0152,-0.0147,-0.0144,0,0,0,0,0,0,0,-0.0842,-0.0934,-0.0877,-0.078,-0.077,-0.0687,-0.0684,-0.068,-0.054,-0.0538,-0.0537,-0.0535,-0.0217,-0.0206,-0.0194,-0.0158,0,0,-0.016,-0.0155,0,0,0,0,0,0,0,0,-0.0933,-0.0934,-0.0876,-0.0874,-0.0872,-0.0687,-0.0684,-0.0681,-0.054,-0.0538,-0.0537,-0.0536,-0.0214,-0.0205,-0.0196,0,0,0,0,0,0,0,0,0,0,0,0,0,0,0,-0.0876,-0.0874,0,-0.0686,-0.0684,-0.0682,-0.054,-0.0539,-0.0537,-0.0536,-0.0211,-0.0204,-0.0196,0,0,0,0,0,0,0,0,0,0,0,0,0,0,0,0,0,0,0,0,0,0,0,0,0,0,0,0,0,0,0,0,0,0,0,0,0,0,0,0,0,0,0,0,0,0,0,0,0,0,0,0,0,0,0,0,0,0,0,0,0,0,0,0,0,0,0,0,0]}]],[[{"header":{"parameterUnit":"kt","parameterCategory":2,"dx":1,"dy":1,"la1":30.253999710083008,"la2":30.299108505249023,"lo1":-89.0895004272461,"lo2":-89.04439544677734,"nx":28,"ny":28,"refTime":"2022-10-03T21:00:00:Z","depth":"4","parameterNumber":2,"parameterNumberName":"U-component_of_CURRENTS"},"data":[-0.1191,-0.1188,-0.1236,-0.1116,-0.1093,-0.1132,-0.1196,-0.1317,-0.1266,-0.1428,-0.1385,-0.152,-0.1467,-0.157,-0.1433,-0.1446,-0.1527,-0.1586,-0.1581,-0.1805,-0.1828,-0.1849,-0.1691,0,0,0,0,0,-0.1349,-0.1328,-0.1313,-0.1346,-0.1383,-0.1429,-0.1519,-0.1614,-0.1779,-0.1628,-0.1731,-0.1637,-0.1569,-0.1605,-0.1484,-0.168,-0.1728,-0.1539,-0.1724,-0.1819,-0.1845,-0.1683,0,0,0,0,0,0,-0.1546,-0.1538,-0.1597,-0.1617,-0.1651,-0.1636,-0.1714,-0.1698,-0.1748,-0.1885,-0.1826,-0.1856,-0.1936,-0.184,-0.1786,-0.1727,-0.1711,-0.169,-0.1721,-0.1747,-0.1595,-0.1507,-0.1355,0,0,0,0,0,-0.1731,-0.1817,-0.1829,-0.1875,-0.1907,-0.1926,-0.197,-0.1969,-0.2094,-0.2229,-0.2126,-0.2095,-0.2014,-0.1979,-0.193,-0.1879,-0.2116,-0.2012,-0.2026,-0.1978,-0.1942,-0.1967,-0.1978,-0.1943,-0.1946,-0.1948,-0.195,0,-0.1933,-0.1946,-0.2074,-0.2071,-0.2105,-0.2175,-0.2185,-0.2331,-0.2323,-0.2412,-0.2358,-0.2378,-0.2345,-0.2156,-0.2182,-0.2132,-0.2058,-0.2079,-0.2027,-0.1983,-0.2002,-0.2006,-0.2009,-0.197,-0.1969,-0.1967,-0.1965,0,-0.2022,-0.2094,-0.2128,-0.223,-0.2265,-0.2298,-0.2374,-0.239,-0.2503,-0.2484,-0.2507,-0.2534,-0.2473,-0.2455,-0.244,-0.2325,-0.2256,-0.2165,-0.2364,-0.2392,-0.2049,-0.2044,-0.2004,-0.1997,-0.199,-0.1985,-0.198,0,-0.2119,-0.2152,-0.2234,-0.2236,-0.2297,-0.2348,-0.2411,-0.2448,-0.251,-0.2485,-0.2553,-0.2509,-0.2529,-0.249,-0.2441,-0.2279,-0.2417,-0.2138,-0.215,-0.234,-0.2335,-0.2311,-0.2302,-0.2375,-0.2374,-0.2373,-0.2372,0,-0.2147,-0.2186,-0.2222,-0.2231,-0.2271,-0.2315,-0.2357,-0.2392,-0.2391,-0.2472,-0.2498,-0.2497,-0.2479,-0.2474,-0.2357,-0.2375,-0.2356,-0.2393,-0.2172,-0.2161,-0.2302,-0.2295,-0.2371,-0.2371,-0.2371,-0.2371,-0.237,0,-0.2154,-0.2161,-0.2184,-0.2235,-0.2249,-0.2271,-0.2346,-0.2346,-0.2366,-0.2382,-0.2379,-0.2369,-0.2331,-0.2266,-0.225,-0.226,-0.2247,-0.2239,-0.2245,-0.199,-0.2009,-0.2297,-0.2339,-0.2338,-0.2337,-0.2336,-0.2336,0,-0.219,-0.2175,-0.216,-0.2189,-0.2194,-0.2213,-0.222,-0.222,-0.2234,-0.2268,-0.2206,-0.2225,-0.2125,-0.2166,-0.2139,-0.2153,-0.2158,-0.2111,-0.2226,-0.2227,-0.2052,-0.2033,-0.2204,-0.2323,-0.2325,-0.2326,-0.2327,0,-0.2181,-0.2148,-0.2158,-0.2179,-0.2177,-0.2171,-0.2168,-0.2173,-0.2214,-0.2165,-0.2214,-0.2112,-0.2121,-0.2096,-0.2085,-0.2085,-0.2142,-0.2114,-0.2114,-0.2192,-0.2276,-0.205,-0.2037,-0.2202,-0.2203,-0.2203,-0.2319,0,-0.2176,-0.2174,-0.2163,-0.2157,-0.215,-0.2155,-0.2135,-0.2137,-0.2157,-0.2145,-0.2145,-0.2093,-0.2089,-0.2072,-0.2048,-0.2057,-0.2103,-0.21,-0.211,-0.2117,-0.2165,-0.2172,-0.207,-0.2068,-0.2067,-0.2066,0,0,-0.2226,-0.2186,-0.2158,-0.214,-0.2153,-0.2158,-0.2165,-0.2135,-0.2122,-0.2133,-0.2134,-0.2111,-0.2071,-0.2065,-0.2047,-0.2036,-0.2092,-0.2065,-0.2098,-0.2102,-0.2105,-0.2153,-0.2161,-0.2064,-0.2064,-0.2063,-0.2063,0,-0.2205,-0.2192,-0.217,-0.2156,-0.2151,-0.2144,-0.2153,-0.2136,-0.2134,-0.2125,-0.213,-0.2118,-0.2098,-0.2067,-0.2052,-0.2032,-0.2074,-0.2046,-0.2052,-0.2088,-0.2094,-0.2098,-0.2147,-0.2155,-0.206,-0.206,-0.206,0,-0.2229,-0.2205,-0.2193,-0.2151,-0.2149,-0.2137,-0.2143,-0.2134,-0.2128,-0.2132,-0.2135,-0.2127,-0.2093,-0.2076,-0.2071,-0.2072,-0.2072,-0.2049,-0.2052,-0.2015,-0.205,-0.2055,-0.206,-0.2007,-0.2008,-0.2008,0,0,-0.2231,-0.2203,-0.2177,-0.215,-0.2148,-0.2142,-0.2133,-0.2137,-0.2129,-0.2133,-0.2131,-0.2121,-0.21,-0.2104,-0.2068,-0.2056,-0.2057,-0.2048,-0.205,-0.2053,-0.2019,-0.2053,-0.2057,-0.201,-0.201,-0.201,0,0,-0.2232,-0.2195,-0.2212,-0.2168,-0.2153,-0.2115,-0.2111,-0.2121,-0.2119,-0.2146,-0.2138,-0.2137,-0.2131,-0.2105,-0.2127,-0.2081,-0.2061,-0.2056,-0.2128,-0.2131,-0.2133,-0.2103,-0.2119,0,0,0,0,0,-0.2232,-0.2197,-0.2212,-0.2205,-0.2153,-0.2109,-0.2102,-0.2106,-0.2144,-0.2133,-0.2147,-0.2146,-0.2105,-0.2124,-0.2118,-0.2128,-0.2029,-0.2025,-0.2022,-0.2108,-0.2111,-0.2113,0,0,0,0,0,0,-0.2229,-0.2218,-0.2213,-0.2174,-0.2163,-0.2109,-0.2133,-0.2132,-0.2145,-0.215,-0.2143,-0.2144,-0.2128,-0.2127,-0.2121,-0.2131,-0.2121,-0.2027,-0.2024,-0.2022,-0.2109,-0.2112,-0.2113,0,0,0,0,0,-0.2227,-0.2218,-0.2138,-0.2174,-0.2165,-0.2159,-0.2135,-0.2135,-0.215,-0.2126,-0.2128,-0.2161,-0.2126,-0.2123,-0.2123,-0.2134,-0.2125,-0.2123,-0.2025,-0.2023,-0.2021,-0.211,0,0,0,0,0,0,-0.2225,-0.2208,-0.2136,-0.2133,-0.2199,-0.2163,-0.2158,-0.2137,-0.2125,-0.2127,-0.214,-0.2143,-0.2124,-0.2122,-0.212,-0.2137,-0.2128,-0.2126,-0.2125,-0.2024,-0.2022,-0.202,0,0,0,0,0,0,-0.2213,-0.2205,-0.2134,-0.2166,-0.2166,-0.2167,-0.2162,-0.2134,-0.2126,-0.214,-0.2142,-0.2142,-0.2143,-0.2121,-0.212,-0.2074,-0.213,-0.2128,-0.2127,-0.2126,-0.2022,-0.2021,0,0,0,0,0,0,-0.221,-0.2203,-0.2166,-0.2166,-0.2167,-0.2131,-0.2143,-0.2098,-0.213,-0.214,-0.2136,-0.2139,-0.2143,-0.2141,-0.2119,-0.2073,-0.2073,-0.213,-0.2129,-0.2128,-0.2127,0,0,0,0,0,0,0,-0.2207,-0.2254,-0.2158,-0.2167,-0.2168,-0.2108,-0.2106,-0.2105,-0.213,-0.2133,-0.2135,-0.2138,-0.2141,-0.2139,-0.2137,-0.2073,0,0,-0.213,-0.2129,0,0,0,0,0,0,0,0,-0.2257,-0.2254,-0.2158,-0.2158,-0.2158,-0.2107,-0.2106,-0.2105,-0.2131,-0.2133,-0.2135,-0.2137,-0.2141,-0.2139,-0.2137,0,0,0,0,0,0,0,0,0,0,0,0,0,0,0,-0.2158,-0.2158,0,-0.2107,-0.2106,-0.2106,-0.2131,-0.2133,-0.2134,-0.2136,-0.214,-0.2139,-0.2137,0,0,0,0,0,0,0,0,0,0,0,0,0,0,0,0,0,0,0,0,0,0,0,0,0,0,0,0,0,0,0,0,0,0,0,0,0,0,0,0,0,0,0,0,0,0,0,0,0,0,0,0,0,0,0,0,0,0,0,0,0,0,0,0,0,0,0,0,0]}],[{"header":{"parameterUnit":"kt","parameterCategory":2,"dx":1,"dy":1,"la1":30.253999710083008,"la2":30.299108505249023,"lo1":-89.0895004272461,"lo2":-89.04439544677734,"nx":28,"ny":28,"refTime":"2022-10-03T21:00:00:Z","depth":"4","parameterNumber":3,"parameterNumberName":"V-component_of_CURRENTS"},"data":[-0.1656,-0.1748,-0.1682,-0.1776,-0.1789,-0.1856,-0.188,-0.1775,-0.1675,-0.1468,-0.1283,-0.1055,-0.0725,-0.0827,-0.0373,-0.0306,-0.0205,0.015,0.0153,0.0321,0.0323,0.0326,0.0161,0,0,0,0,0,-0.1544,-0.155,-0.1662,-0.1671,-0.178,-0.1777,-0.1804,-0.1741,-0.1544,-0.146,-0.1307,-0.1103,-0.0744,-0.0556,-0.039,-0.0263,0.0013,-0.0065,0.0067,0.0322,0.0325,0.0164,0,0,0,0,0,0,-0.1403,-0.1445,-0.1511,-0.1542,-0.1649,-0.1692,-0.1659,-0.1599,-0.1509,-0.126,-0.1201,-0.0918,-0.071,-0.0411,-0.0218,-0.0037,0.0021,0.0072,0.0088,0.0093,-0.0071,-0.0203,-0.0111,0,0,0,0,0,-0.1222,-0.1247,-0.1307,-0.1371,-0.1435,-0.1475,-0.1484,-0.1454,-0.1312,-0.1197,-0.1026,-0.0819,-0.0616,-0.035,-0.0147,0.0054,0.0234,0.0285,0.0289,0.0246,0.0176,0.0175,0.0158,0.0336,0.0336,0.0337,0.0337,0,-0.1083,-0.1112,-0.1149,-0.1212,-0.1227,-0.1243,-0.1276,-0.1155,-0.1143,-0.0965,-0.0965,-0.0759,-0.0637,-0.0323,-0.0114,0.0175,0.0186,0.0291,0.0245,0.0178,0.0181,0.0162,0.0143,0.0339,0.0339,0.0339,0.0339,0,-0.1042,-0.1025,-0.1063,-0.1056,-0.1058,-0.1088,-0.1059,-0.1064,-0.0954,-0.0913,-0.0883,-0.0702,-0.0521,-0.0336,-0.0077,0.0004,0.0183,0.0225,0.0142,0.0152,0.0159,0.0139,0.0343,0.0342,0.0341,0.0341,0.034,0,-0.0982,-0.0997,-0.0996,-0.1005,-0.1028,-0.0976,-0.0972,-0.093,-0.0849,-0.0828,-0.0701,-0.0643,-0.0446,-0.0311,-0.0177,-0.002,0.0047,0.0073,0.0097,0.0036,0.0018,0.0056,0.0038,0.0194,0.0193,0.0191,0.019,0,-0.0962,-0.0949,-0.0965,-0.0957,-0.0927,-0.0924,-0.0909,-0.0843,-0.0827,-0.072,-0.0687,-0.0542,-0.0493,-0.0329,-0.0223,-0.0238,0.0001,0.0003,0.004,0.0036,0.004,0.0024,0.0188,0.0187,0.0187,0.0186,0.0186,0,-0.092,-0.0917,-0.0927,-0.0901,-0.09,-0.0897,-0.0855,-0.0835,-0.0757,-0.0727,-0.0649,-0.0606,-0.0502,-0.0511,-0.0307,-0.038,-0.0281,-0.0211,-0.0201,-0.0262,-0.029,-0.0208,-0.0104,-0.0107,-0.011,-0.0113,-0.0115,0,-0.0899,-0.0901,-0.0881,-0.0882,-0.0885,-0.0852,-0.0836,-0.0803,-0.0775,-0.073,-0.0677,-0.0642,-0.0643,-0.0619,-0.0536,-0.0457,-0.0358,-0.0475,-0.0257,-0.0251,-0.0322,-0.0239,-0.0376,-0.0157,-0.0151,-0.0148,-0.0145,0,-0.0885,-0.087,-0.0874,-0.0872,-0.0846,-0.0842,-0.0824,-0.0798,-0.0777,-0.0756,-0.0711,-0.0686,-0.0656,-0.064,-0.062,-0.0543,-0.0418,-0.0535,-0.053,-0.0444,-0.0198,-0.0279,-0.0262,-0.0395,-0.0391,-0.0388,-0.0173,0,-0.0845,-0.0852,-0.0857,-0.0847,-0.0838,-0.0835,-0.0817,-0.0808,-0.0807,-0.0788,-0.0749,-0.0725,-0.0686,-0.0688,-0.0688,-0.0604,-0.059,-0.0593,-0.0584,-0.0541,-0.0457,-0.0434,-0.0703,-0.0703,-0.0703,-0.0703,0,0,-0.0834,-0.0841,-0.0836,-0.0831,-0.0824,-0.0811,-0.0808,-0.0804,-0.0785,-0.0771,-0.0786,-0.0737,-0.0736,-0.0684,-0.0685,-0.069,-0.0631,-0.0695,-0.0582,-0.0569,-0.0557,-0.0473,-0.0451,-0.0704,-0.0704,-0.0704,-0.0704,0,-0.0815,-0.0828,-0.0837,-0.0825,-0.0814,-0.0805,-0.0803,-0.079,-0.0792,-0.0781,-0.077,-0.0744,-0.0749,-0.0721,-0.0711,-0.0695,-0.0658,-0.0709,-0.0684,-0.0587,-0.0574,-0.0562,-0.0478,-0.0458,-0.0704,-0.0704,-0.0704,0,-0.0798,-0.0792,-0.08,-0.0795,-0.0794,-0.0788,-0.0782,-0.0781,-0.0774,-0.0765,-0.0768,-0.0757,-0.0745,-0.0735,-0.0732,-0.0733,-0.0661,-0.0726,-0.0725,-0.0713,-0.0612,-0.0597,-0.0585,-0.0741,-0.0742,-0.0742,0,0,-0.0783,-0.0791,-0.0777,-0.0789,-0.079,-0.078,-0.078,-0.0773,-0.0764,-0.0766,-0.0763,-0.0758,-0.0748,-0.0744,-0.0741,-0.0731,-0.0679,-0.0731,-0.0729,-0.0728,-0.0715,-0.0614,-0.0601,-0.0742,-0.0742,-0.0742,0,0,-0.0772,-0.0765,-0.0765,-0.0782,-0.077,-0.0757,-0.077,-0.0762,-0.0761,-0.0766,-0.0761,-0.076,-0.0754,-0.0752,-0.0757,-0.0746,-0.0753,-0.0752,-0.0747,-0.0745,-0.0743,-0.0728,-0.0768,0,0,0,0,0,-0.0745,-0.0762,-0.0763,-0.0764,-0.0769,-0.0756,-0.0756,-0.0759,-0.0764,-0.0768,-0.0761,-0.077,-0.0752,-0.0757,-0.0756,-0.0756,-0.0748,-0.0747,-0.0746,-0.0738,-0.0736,-0.0734,0,0,0,0,0,0,-0.0745,-0.0746,-0.0762,-0.075,-0.0751,-0.0756,-0.0759,-0.076,-0.0764,-0.0765,-0.0769,-0.077,-0.0769,-0.0757,-0.0757,-0.0757,-0.0768,-0.0748,-0.0747,-0.0746,-0.0737,-0.0736,-0.0734,0,0,0,0,0,-0.0745,-0.0746,-0.0756,-0.075,-0.0751,-0.0753,-0.076,-0.0761,-0.0769,-0.0763,-0.0764,-0.0771,-0.0769,-0.0768,-0.0757,-0.0757,-0.0769,-0.0768,-0.0747,-0.0747,-0.0746,-0.0736,0,0,0,0,0,0,-0.0745,-0.0751,-0.0756,-0.0756,-0.0751,-0.0753,-0.0755,-0.0761,-0.0767,-0.0768,-0.0764,-0.0764,-0.0768,-0.0768,-0.0768,-0.0756,-0.0769,-0.0769,-0.0769,-0.0747,-0.0746,-0.0746,0,0,0,0,0,0,-0.075,-0.0751,-0.0756,-0.0758,-0.0758,-0.0753,-0.0754,-0.0752,-0.0767,-0.0768,-0.0769,-0.0764,-0.0765,-0.0768,-0.0768,-0.0764,-0.0769,-0.0769,-0.0769,-0.0769,-0.0746,-0.0746,0,0,0,0,0,0,-0.075,-0.0751,-0.0758,-0.0758,-0.0758,-0.0759,-0.0751,-0.0756,-0.0769,-0.0768,-0.0769,-0.077,-0.0764,-0.0764,-0.0768,-0.0764,-0.0764,-0.0769,-0.0769,-0.0769,-0.0769,0,0,0,0,0,0,0,-0.075,-0.0746,-0.0754,-0.0758,-0.0759,-0.0753,-0.0754,-0.0754,-0.0769,-0.0769,-0.0769,-0.077,-0.077,-0.077,-0.077,-0.0764,0,0,-0.0769,-0.0769,0,0,0,0,0,0,0,0,-0.0745,-0.0746,-0.0754,-0.0753,-0.0753,-0.0753,-0.0754,-0.0754,-0.0769,-0.0769,-0.0769,-0.0769,-0.077,-0.077,-0.077,0,0,0,0,0,0,0,0,0,0,0,0,0,0,0,-0.0754,-0.0753,0,-0.0753,-0.0754,-0.0754,-0.0769,-0.0769,-0.0769,-0.0769,-0.077,-0.077,-0.077,0,0,0,0,0,0,0,0,0,0,0,0,0,0,0,0,0,0,0,0,0,0,0,0,0,0,0,0,0,0,0,0,0,0,0,0,0,0,0,0,0,0,0,0,0,0,0,0,0,0,0,0,0,0,0,0,0,0,0,0,0,0,0,0,0,0,0,0,0]}]]]